C4984 Weather Reports


Display with metric or nautical units.
time (UTC)temp
F
wind
direction
speed
MPH
gust
MPH
rain 1hr
in
rain 24hr
in
rain mn
in
humidity
%
barometer
mb
20260831131817 73 215 0.0 3.0 0.00 0.00 0.00 100 1014.7
20260831130835 73 125 0.0 0.0 0.00 0.00 0.00 100 1014.8
20260831125840 72 148 0.0 0.0 0.00 0.00 0.00 100 1015.2
20260831124900 72 110 0.0 1.0 0.00 0.00 0.00 100 1015.2
20260831122705 70 208 0.0 0.0 0.00 0.00 0.00 99 1014.9
20260831121655 69 208 0.0 0.0 0.00 0.00 0.00 99 1014.9
20260831120646 69 208 0.0 0.0 0.00 0.00 0.00 99 1014.9
20260831115658 69 208 0.0 0.0 0.00 0.00 0.00 99 1015.0
20260831114719 69 208 0.0 0.0 0.00 0.00 0.00 99 1015.0
20260831113732 69 208 0.0 0.0 0.00 0.00 0.00 99 1014.9
20260831112700 69 208 0.0 0.0 0.00 0.00 0.00 99 1014.7
20260831111723 69 208 0.0 0.0 0.00 0.00 0.00 99 1014.7
20260831110719 69 208 0.0 0.0 0.00 0.00 0.00 99 1014.6
20260831105739 68 208 0.0 0.0 0.00 0.00 0.00 98 1014.6
20260831104724 68 208 0.0 0.0 0.00 0.00 0.00 98 1014.6
20260831103659 69 208 0.0 0.0 0.00 0.00 0.00 99 1014.2
20260831102645 68 208 0.0 0.0 0.00 0.00 0.00 99 1014.3
20260831100550 69 208 0.0 0.0 0.00 0.00 0.00 98 1014.3
20260831095608 69 208 0.0 0.0 0.00 0.00 0.00 98 1014.2
20260831094543 69 208 0.0 0.0 0.00 0.00 0.00 98 1014.2
20260831093535 69 208 0.0 0.0 0.00 0.00 0.00 98 1014.2
20260831092503 69 208 0.0 0.0 0.00 0.00 0.00 98 1014.1
20260831091454 69 208 0.0 0.0 0.00 0.00 0.00 98 1014.1
20260831090442 69 208 0.0 0.0 0.00 0.00 0.00 98 1014.1
20260831085422 69 208 0.0 0.0 0.00 0.00 0.00 98 1014.1
20260831084428 69 208 0.0 0.0 0.00 0.00 0.00 98 1014.1
20260831083448 69 208 0.0 0.0 0.00 0.00 0.00 98 1014.3
20260831082501 69 208 0.0 0.0 0.00 0.00 0.00 98 1014.3
20260831081508 69 208 0.0 0.0 0.00 0.00 0.00 98 1014.3
20260831080501 69 208 0.0 0.0 0.00 0.00 0.00 98 1014.5
20260831075519 70 208 0.0 0.0 0.00 0.00 0.00 98 1014.5
20260831074529 70 208 0.0 0.0 0.00 0.00 0.00 98 1014.5
20260831073543 70 208 0.0 0.0 0.00 0.00 0.00 98 1014.5
20260831072547 70 208 0.0 0.0 0.00 0.00 0.00 98 1014.5
20260831071552 70 208 0.0 0.0 0.00 0.00 0.00 98 1014.5
20260831070606 70 208 0.0 0.0 0.00 0.00 0.00 98 1014.6
20260831064408 70 208 0.0 0.0 0.00 0.00 0.00 98 1014.7
20260831063352 70 208 0.0 0.0 0.00 0.00 0.00 98 1014.7
20260831062342 70 208 0.0 0.0 0.00 0.00 0.00 97 1014.6
20260831061316 70 208 0.0 0.0 0.00 0.00 0.00 97 1014.6
20260831060307 70 208 0.0 0.0 0.00 0.00 0.00 97 1014.6
20260831055239 70 208 0.0 0.0 0.00 0.00 0.00 97 1014.7
20260831054247 71 208 0.0 0.0 0.00 0.00 0.00 97 1014.6
20260831053221 71 208 0.0 0.0 0.00 0.00 0.00 97 1014.6
20260831045927 71 208 0.0 0.0 0.00 0.00 0.00 97 1014.8
20260831044911 71 208 0.0 0.0 0.00 0.00 0.00 97 1014.8
20260831042727 71 208 0.0 0.0 0.00 0.00 0.00 97 1014.9
20260831041711 71 208 0.0 0.0 0.00 0.00 0.00 97 1014.9
20260831040644 71 208 0.0 0.0 0.00 0.00 0.00 96 1015.1
20260831035706 71 208 0.0 0.0 0.00 0.00 0.00 96 1015.2
20260831034653 71 208 0.0 0.0 0.00 0.00 0.00 96 1015.2
20260831033655 71 208 0.0 0.0 0.00 0.00 0.00 96 1014.9
20260831032704 72 208 0.0 0.0 0.00 0.00 0.00 96 1015.2
20260831031651 72 208 0.0 0.0 0.00 0.00 0.00 95 1015.2
20260831030618 72 208 0.0 0.0 0.00 0.00 0.00 95 1015.3
20260831025625 72 208 0.0 0.0 0.00 0.00 0.00 95 1015.3
20260831021159 73 208 0.0 0.0 0.00 0.00 0.00 94 1015.2
20260831020147 73 208 0.0 0.0 0.00 0.00 0.00 93 1015.2
20260831015152 74 208 0.0 0.0 0.00 0.00 0.00 93 1015.2
20260831014144 74 208 0.0 0.0 0.00 0.00 0.00 92 1015.3
20260831013110 74 208 0.0 0.0 0.00 0.00 0.00 92 1015.3
20260831012134 75 208 0.0 0.0 0.00 0.00 0.00 92 1015.2
20260831010028 76 208 0.0 0.0 0.00 0.00 0.00 90 1015.1
20260831005042 76 208 0.0 0.0 0.00 0.00 0.00 89 1015.1
20260831004059 77 208 0.0 0.0 0.00 0.00 0.00 88 1015.1
20260831003036 77 208 0.0 0.0 0.00 0.00 0.00 88 1015.1
20260831002056 78 208 0.0 0.0 0.00 0.00 0.00 87 1014.7
20260831001022 79 208 0.0 0.0 0.00 0.00 0.00 85 1014.6
20260831000029 80 198 0.0 0.0 0.00 0.00 0.00 84 1014.6
20260830235034 81 198 0.0 0.0 0.00 0.00 0.00 82 1014.6
20260830234056 82 198 0.0 0.0 0.00 0.00 0.00 80 1014.6
20260830233055 82 198 0.0 0.0 0.00 0.00 0.00 79 1014.6
20260830232044 83 198 0.0 0.0 0.00 0.00 0.00 78 1014.8
20260830231047 84 208 0.0 0.0 0.00 0.00 0.00 76 1014.8
20260830230041 85 207 0.0 1.0 0.00 0.00 0.00 73 1014.8
20260830225044 86 198 0.0 0.0 0.00 0.00 0.00 71 1014.9
20260830224043 87 198 0.0 0.0 0.00 0.00 0.00 70 1014.6
20260830223028 87 198 0.0 1.0 0.00 0.00 0.00 69 1014.6
20260830220848 86 146 0.0 2.0 0.00 0.00 0.00 70 1014.7
20260830215908 86 219 0.0 2.0 0.00 0.00 0.00 68 1014.8
20260830213759 87 184 0.0 0.0 0.00 0.00 0.00 69 1015.0
20260830212747 87 184 0.0 0.0 0.00 0.00 0.00 70 1015.0
20260830211757 87 126 0.0 1.0 0.00 0.00 0.00 67 1015.0
20260830210811 86 126 0.0 1.0 0.00 0.00 0.00 69 1015.0
20260830204723 86 188 0.0 3.0 0.00 0.00 0.00 67 1015.0
20260830203745 87 167 0.0 3.0 0.00 0.00 0.00 65 1015.1
20260830202759 87 15 0.0 3.0 0.00 0.00 0.00 65 1015.4
20260830201802 86 338 0.0 3.0 0.00 0.00 0.00 70 1015.4
20260830200734 85 140 0.0 4.0 0.00 0.00 0.00 70 1015.6
20260830195729 85 226 1.0 4.0 0.00 0.00 0.00 71 1015.6
20260830192414 85 37 0.0 3.0 0.00 0.00 0.00 71 1016.1
20260830190217 85 191 1.0 4.0 0.00 0.00 0.00 71 1016.1
20260830185242 85 98 0.0 4.0 0.00 0.00 0.00 71 1016.2
20260830183142 85 335 0.0 3.0 0.00 0.00 0.00 72 1016.6
20260830181045 83 47 0.0 3.0 0.00 0.00 0.00 75 1016.7
20260830180013 84 115 0.0 3.0 0.00 0.00 0.00 74 1016.7
20260830174944 83 254 0.0 1.0 0.00 0.00 0.00 76 1016.7
20260830173922 82 198 0.0 3.0 0.00 0.00 0.00 79 1016.8
20260830172849 82 179 0.0 2.0 0.00 0.00 0.00 78 1016.9
20260830171853 82 179 0.0 2.0 0.00 0.00 0.00 77 1016.9
20260830170834 82 15 0.0 3.0 0.00 0.00 0.00 80 1017.2
20260830165855 81 174 0.0 3.0 0.00 0.00 0.00 80 1017.3
20260830164831 81 353 0.0 3.0 0.00 0.00 0.00 80 1017.3
20260830163842 81 111 0.0 3.0 0.00 0.00 0.00 80 1017.3
20260830162849 81 134 0.0 3.0 0.00 0.00 0.00 81 1017.5
20260830161900 80 130 0.0 3.0 0.00 0.00 0.00 85 1017.5
20260830160907 79 205 0.0 3.0 0.00 0.00 0.00 82 1017.7
20260830155930 79 124 0.0 2.0 0.00 0.00 0.00 83 1017.7
20260830154924 80 216 0.0 1.0 0.00 0.00 0.00 84 1017.7
20260830153918 79 231 0.0 0.0 0.00 0.00 0.00 86 1017.8
20260830151828 77 145 0.0 0.0 0.00 0.00 0.00 89 1017.8
20260830150826 76 264 0.0 0.0 0.00 0.00 0.00 92 1017.9
20260830143518 74 75 0.0 0.0 0.00 0.00 0.00 95 1018.2
20260830142453 74 75 0.0 0.0 0.00 0.00 0.00 97 1018.4
20260830141448 74 75 0.0 0.0 0.00 0.00 0.00 98 1018.4
20260830134127 72 67 0.0 0.0 0.00 0.00 0.00 99 1018.3